Retour au catalogue

FENGYUN 1C DEB

ActifPO
NORAD 31231·DEBRIS·🇨🇳 China

Lancé May 10, 1999 depuis Taiyuan Satellite Launch Center

Loading…

Prochains Passages (prochaines 24 heures)

TLE

VieillissantSource: Space-Track

Époque: Sep 10, 2026, 05:54 UTC

1 31231U 99025BLM 26253.24641326  .00011448  00000-0  11113-2 0  9998
2 31231  98.8662  86.6102 0118039 326.1507  33.2210 14.87682514670437

Suivez FENGYUN 1C DEB en temps réel avec AllMySat

Download on the App Store